[Iaude] MPEC P49: 2024 PH [a=2.31,e=0.57,i=5.0,H=24.4]
    mpec at cfa.harvard.edu 
    mpec at cfa.harvard.edu
       
    Sat Aug  3 12:27:33 EDT 2024
    
    
  
M.P.E.C. 2024-P49                                Issued 2024 August 3, 16:26 UT
     The Minor Planet Electronic Circulars contain information on unusual
         minor planets, routine data on comets and natural satellites,
         and occasional editorial announcements.  They are published
    on behalf of Division F of the International Astronomical Union by the
          Minor Planet Center, Smithsonian Astrophysical Observatory,
                          Cambridge, MA 02138, U.S.A.
			  
             Prepared using the Tamkin Foundation Computer Network
                              MPC at CFA.HARVARD.EDU
            URL https://www.minorplanetcenter.net/    ISSN 1523-6714
                                    2024 PH                                     
Observations:
     K24P00H  C2024 07 29.50784821 15 34.366+07 05 18.97         20.58GVEP049F51
     K24P00H  C2024 07 29.52047621 15 38.214+07 07 03.35         21.20GVEP049F51
     K24P00H  C2024 07 29.53313521 15 42.049+07 08 47.13         20.52GVEP049F51
     K24P00H* C2024 08 01.39128421 33 59.495+14 25 05.06         20.29wXEP049F52
     K24P00H  C2024 08 01.41367021 34 08.505+14 28 52.13         21.04wXEP049F52
     K24P00H  C2024 08 01.42486721 34 13.008+14 30 45.85         20.67wXEP049F52
     K24P00H KC2024 08 02.05290921 38 54.218+16 17 51.04         20.5 GVEP049J95
     K24P00H KC2024 08 02.05955321 38 57.110+16 19 01.56         20.4 GVEP049J95
     K24P00H KC2024 08 02.06872421 39 01.193+16 20 37.68         20.0 GVEP049J95
     K24P00H KC2024 08 02.35742921 41 15.88 +17 11 53.1          20.7 GVEP049H21
     K24P00H KC2024 08 02.36027421 41 17.18 +17 12 23.8          20.3 GVEP049H21
     K24P00H KC2024 08 03.24288321 48 42.99 +19 53 34.8          21.0 GVEP049H21
     K24P00H KC2024 08 03.25425421 48 48.57 +19 55 42.8          20.7 GVEP049H21
     K24P00H KC2024 08 03.25984821 48 51.31 +19 56 45.7          21.2 GVEP049H21
Observer details:
F51 Pan-STARRS 1, Haleakala.  Observers J. Herman, T. Lowe, P. Minguez, A.
    Schultz, I. Smith.  Measurers K. Chambers, T. de Boer, J. Fairlamb, H.
    Gao, M. Huber, C.-C. Lin, E. Magnier, Y. Ramanjooloo, R. Wainscoat, R.
    Weryk.  1.8-m Ritchey-Chretien + CCD.
F52 Pan-STARRS 2, Haleakala.  Observers J. Herman, T. Lowe, P. Minguez, A.
    Schultz, I. Smith.  Measurers K. Chambers, T. de Boer, J. Fairlamb, H.
    Gao, M. Huber, C.-C. Lin, E. Magnier, Y. Ramanjooloo, R. Wainscoat, R.
    Weryk.  1.8-m Ritchey-Chretien + CCD.
H21 Astronomical Research Observatory, Westfield.  Observer R. Holmes.
    Measurers T. Linder, R. Holmes.  0.81-m f/4.0 astrograph + CCD.
J95 Great Shefford.  Observer P. Birtwhistle.  0.41-m f/6.3 Schmidt-Cassegrain
    + CCD.
Orbital elements:
2024 PH                                                  Earth MOID = 0.0626 AU
Epoch 2024 Oct. 17.0 TT = JDT 2460600.5                 Bell                    
M  10.98669              (2000.0)            P               Q                  
n   0.28096372     Peri.   71.70119     +0.99308719     +0.08148185             
a   2.3087091      Node   283.55866     -0.10941400     +0.90323392             
e   0.5746338      Incl.    4.98599     +0.04250192     +0.42134213             
P   3.51           H   24.40          G   0.15           U   8                  
Residuals in seconds of arc
240729 F51  0.2-  0.2-    240801 F52  0.0   0.0     240802 H21  0.1+  0.4+
240729 F51  0.1+  0.4+    240802 J95  0.0   0.4-    240803 H21  0.0   0.0
240729 F51  0.1-  0.0     240802 J95  0.4-  0.4+    240803 H21  0.0   0.0
240801 F52  0.1+  0.0     240802 J95  0.3+  0.3+    240803 H21  0.2-  0.0
240801 F52  0.0   0.1-    240802 H21  0.1-  0.0
Ephemeris:
2024 PH                  a,e,i = 2.31, 0.57, 5                   q = 0.9820
Date    TT    R. A. (2000) Decl.     Delta      r    Elong.  Phase     V
2024 07 04    20 09 48.8 -19 04 57   0.2783  1.2839   161.7    14.4    23.0
...
2024 07 19    20 36 07.1 -09 22 15   0.1665  1.1776   164.7    13.2    21.6
...
2024 07 27    21 03 03.2 +01 52 24   0.1197  1.1267   157.0    20.6    21.1
...
2024 08 02    21 38 29.6 +16 09 22   0.09366 1.0920   144.0    33.1    20.8
2024 08 03    21 46 35.6 +19 08 54   0.09044 1.0866   141.1    35.9    20.8
2024 08 04    21 55 32.8 +22 18 00   0.08762 1.0812   137.9    39.0    20.8
...
2024 08 10    23 13 43.5 +42 31 44   0.08027 1.0517   116.3    59.8    21.2
...
2024 08 18    02 09 35.1 +57 48 20   0.09577 1.0194    91.6    83.0    22.3
...
2024 09 02    05 29 22.6 +51 50 57   0.1613  0.9851    76.9    93.9    23.7
M. P. C. Staff               (C) Copyright 2024 MPC           M.P.E.C. 2024-P49
    
    
More information about the Iaude
mailing list